Theta_e
310 310 311 311 312 312 312 313 313 313 313 314 314 314 314 315 316 309 301 309 313 319 317 306 304 303 304 302 304 306 295 293 295 294 298 301 302 304 306 308 311 315 315 319 318
310 310 311 311 312 312 312 312 313 313 313 313 314 314 315 316 307 304 310 316 317 319 307 302 300 302 297 298 298 298 292 295 298 298 298 303 302 302 303 308 308 313 318 316 319
311 311 311 311 311 311 312 312 313 312 313 313 314 315 316 313 300 301 312 315 316 316 308 304 304 301 295 297 296 295 292 298 300 303 304 301 302 307 301 302 308 312 315 312 318
311 311 310 310 310 311 312 312 312 312 313 313 315 316 316 305 286 303 314 316 315 312 306 303 300 296 293 292 297 292 294 297 301 303 303 301 303 302 303 305 310 312 317 313 317
311 311 310 310 310 311 312 312 312 312 313 314 315 317 305 294 296 306 314 312 307 308 303 300 296 296 291 293 295 293 295 298 300 302 305 305 301 303 302 306 314 319 317 313 316
310 311 310 310 310 311 311 311 312 313 313 314 315 316 300 289 305 308 308 308 304 305 302 301 297 299 295 296 294 295 296 297 299 301 304 303 301 305 303 311 317 318 317 313 313
310 310 310 310 310 311 311 311 312 313 313 314 315 310 300 295 306 307 308 306 305 304 300 304 304 299 299 296 299 297 292 294 296 300 301 305 299 301 301 314 316 317 317 316 313
310 310 310 310 310 311 311 312 312 313 314 314 314 305 295 305 306 305 306 304 307 307 303 307 306 302 298 300 296 292 293 286 292 298 300 298 292 301 305 303 313 317 314 315 316
310 310 310 310 310 310 311 311 311 313 313 313 303 297 293 307 300 303 304 302 303 306 306 308 307 300 298 292 287 289 285 286 288 300 300 296 294 301 303 298 306 314 315 314 315
310 310 309 309 310 310 311 309 310 305 305 308 305 291 296 294 299 302 304 304 300 300 300 300 298 291 291 289 280 282 284 287 286 295 297 295 295 300 302 298 303 311 313 314 313
310 309 309 309 310 310 302 295 290 290 295 291 292 292 296 300 303 300 303 301 300 296 288 293 291 286 290 292 291 290 289 287 288 297 294 293 294 299 301 299 293 296 306 312 313
309 309 308 309 310 308 298 292 294 295 287 294 295 295 298 300 294 298 303 294 293 286 289 286 286 293 295 293 290 287 285 286 292 298 297 297 296 299 299 297 292 293 295 299 306
308 308 308 309 308 298 294 293 299 302 288 291 295 295 296 298 293 295 299 294 290 287 285 283 288 295 293 292 290 286 285 286 290 294 294 295 289 291 296 298 297 295 295 297 300
307 308 308 309 297 294 291 297 299 299 277 284 289 293 296 296 291 299 299 294 289 286 286 284 291 290 290 289 291 286 292 289 290 290 286 289 281 286 290 292 295 296 293 295 297
307 307 308 304 291 291 295 299 298 291 268 284 289 298 295 291 292 292 298 294 286 287 285 283 286 285 287 289 292 288 292 290 290 287 287 286 283 285 290 288 291 295 294 294 297
307 307 305 299 295 296 299 297 292 275 269 283 288 287 287 289 291 293 292 295 294 287 285 285 289 287 287 292 292 293 290 289 288 286 279 285 284 282 287 289 291 293 294 295 296
308 307 301 299 291 298 297 289 274 271 281 278 282 285 285 285 287 289 287 286 285 277 280 284 283 287 289 286 290 290 285 276 275 273 278 285 282 285 289 291 291 291 293 295 295
308 306 302 300 298 296 290 279 267 270 275 284 284 285 282 285 284 286 284 281 286 287 282 279 275 284 289 285 284 285 284 278 271 273 278 283 278 283 291 294 295 294 294 295 295
306 295 294 297 298 294 283 268 270 274 282 282 283 279 275 283 283 282 282 282 285 289 282 281 278 287 287 288 286 284 281 286 280 276 277 277 281 287 292 291 290 291 293 294 296
293 291 291 298 296 288 278 275 273 282 284 284 279 280 274 276 280 280 277 283 284 288 290 287 279 284 287 287 286 285 287 279 278 270 270 277 277 279 284 286 288 289 289 290 292
291 284 291 297 293 283 272 271 280 285 286 283 280 281 281 281 278 279 280 283 286 286 291 288 284 281 283 282 280 282 281 282 281 279 274 273 275 282 285 286 286 288 290 290 291
286 275 294 293 280 275 271 272 284 284 285 285 284 283 281 282 281 279 280 283 292 291 286 288 283 274 278 284 285 284 281 281 275 275 277 277 277 287 287 288 288 288 289 289 289
281 284 296 290 274 272 275 274 280 282 283 284 283 285 285 282 279 282 282 287 289 290 287 289 276 266 272 279 283 282 284 283 282 281 277 273 276 287 286 286 287 288 287 287 287
282 278 286 290 282 275 272 272 275 283 283 285 284 285 283 282 283 281 282 284 287 287 293 290 280 275 271 276 280 279 282 283 281 274 278 277 277 281 283 284 285 287 286 286 287
283 277 283 279 281 277 279 278 277 275 281 283 283 284 283 279 280 281 281 283 285 290 286 284 274 276 278 279 279 280 281 282 280 280 276 278 278 282 283 282 283 286 285 285 286
282 280 283 278 282 280 280 277 279 280 280 279 281 284 284 281 282 280 281 282 281 283 282 282 272 274 270 277 276 275 279 280 281 282 280 280 279 285 283 283 283 284 284 284 285
290 289 284 282 281 277 276 279 280 282 282 283 283 282 282 283 284 283 284 283 283 282 281 278 270 265 265 272 270 267 273 278 278 279 281 279 282 283 280 283 283 283 283 284 284
Wind_Speed
8 9 10 11 12 12 13 14 14 15 16 15 16 16 15 15 15 4 3 4 5 13 10 6 6 7 3 1 2 2 5 18 23 8 7 2 5 3 2 7 2 4 3 3 17
8 9 11 12 12 13 14 14 15 15 16 16 16 15 14 13 3 3 4 7 8 10 5 7 7 8 4 2 2 4 7 19 2 4 7 15 5 3 4 4 3 3 4 11 16
8 9 11 12 12 14 14 15 15 16 16 16 15 14 13 7 1 3 2 7 8 5 1 0 2 2 3 1 3 5 16 12 11 7 7 7 8 3 3 3 7 10 10 13 13
8 9 10 12 14 14 15 15 16 16 16 16 13 12 12 1 1 3 4 10 6 3 2 3 3 4 2 3 3 6 10 7 5 11 7 9 11 5 6 9 5 8 11 15 18
9 10 11 13 14 16 17 17 16 16 16 15 12 10 4 4 3 1 7 7 2 2 1 2 3 1 4 3 2 8 12 7 9 9 9 10 10 9 7 9 7 8 15 16 16
9 10 11 12 14 16 18 18 19 17 16 13 10 4 2 2 1 3 6 4 3 3 3 3 2 2 6 8 7 5 9 7 9 7 4 6 12 7 3 7 5 10 16 16 15
9 10 12 13 15 17 18 20 19 19 14 9 4 2 2 6 2 6 4 2 1 4 2 2 1 2 2 6 3 8 14 10 11 11 11 3 11 2 7 6 7 9 9 10 10
8 9 11 14 16 18 20 21 21 17 8 3 1 1 5 4 3 5 3 4 1 3 1 1 4 9 4 3 5 9 7 8 8 13 7 16 11 1 12 11 5 4 4 8 7
7 9 12 14 16 18 20 22 17 9 3 3 2 2 7 5 4 5 1 3 4 2 3 2 4 3 2 4 4 6 7 14 7 13 6 15 12 3 14 16 7 5 4 5 6
6 8 11 14 17 19 21 14 7 3 4 3 1 2 2 5 5 6 3 2 3 4 2 3 1 3 3 3 5 5 7 7 11 9 9 14 13 4 15 18 11 5 2 5 2
6 8 11 14 15 18 10 5 7 3 6 1 2 3 4 7 2 4 4 4 1 1 3 2 2 9 16 9 13 9 9 8 10 6 11 15 10 6 15 15 17 13 7 4 5
4 6 10 12 14 13 3 5 3 2 7 1 4 4 5 2 3 5 5 4 4 3 6 5 2 5 12 10 5 6 6 8 9 8 3 10 11 9 12 5 10 10 11 8 5
3 5 8 10 11 5 4 2 4 2 2 6 3 2 5 1 3 5 5 1 4 5 4 1 5 8 8 8 11 3 6 6 4 11 7 3 4 7 6 7 11 16 12 10 10
3 5 7 11 4 2 2 4 3 1 5 3 1 2 2 1 3 3 2 1 3 3 5 4 5 5 5 7 11 6 14 9 6 3 4 4 3 4 6 11 12 15 17 12 14
3 3 5 4 3 2 1 3 2 3 4 3 5 2 5 2 4 2 3 2 2 3 3 5 7 6 6 6 11 5 13 3 5 6 4 8 3 3 3 7 9 15 14 11 6
5 2 1 2 2 1 2 1 3 8 7 0 2 4 2 4 5 5 4 4 1 2 1 4 4 2 3 0 3 6 5 1 2 2 5 7 3 3 4 5 2 10 17 13 10
5 3 1 2 1 1 2 4 7 5 4 5 2 3 1 4 4 7 4 6 5 6 7 7 5 6 2 3 4 6 4 4 6 7 3 8 5 5 5 6 3 3 4 12 10
7 4 2 2 1 2 3 7 4 2 5 2 1 1 2 5 3 6 3 3 5 4 3 4 7 6 7 2 3 4 4 3 1 3 2 7 6 3 2 1 3 3 3 7 11
10 2 2 2 2 3 6 5 8 6 2 3 2 3 5 3 2 5 4 2 2 5 3 5 4 5 2 3 2 5 5 2 5 1 3 3 2 1 4 1 4 3 3 5 8
3 2 1 2 3 5 6 5 3 2 2 1 4 3 3 2 1 2 1 3 4 1 1 2 5 3 5 4 3 4 1 3 4 3 3 3 4 3 6 5 6 7 7 7 5
4 3 2 2 3 5 4 7 4 3 2 2 4 3 2 1 3 1 2 2 3 3 3 2 1 7 2 5 2 7 4 5 4 3 3 3 2 3 4 5 6 6 7 7 7
4 2 1 1 4 2 2 5 3 3 1 1 2 1 4 4 3 2 3 2 2 2 1 2 2 3 2 3 2 1 2 1 4 2 2 3 2 2 3 5 6 6 6 6 6
5 3 1 2 4 2 2 2 2 3 4 4 4 3 1 3 1 1 1 2 3 3 1 2 2 4 8 7 5 5 3 2 2 2 1 5 4 1 5 5 5 5 5 6 6
4 5 1 2 2 6 6 4 3 1 1 2 3 2 2 2 2 3 2 0 0 1 1 1 2 4 5 3 1 4 4 3 1 3 2 2 5 3 3 6 4 5 5 5 5
3 6 4 7 8 5 5 6 5 4 1 2 1 4 6 4 3 4 3 1 1 0 3 2 2 2 1 1 1 2 3 3 1 2 4 2 5 6 2 3 3 4 4 6 7
7 5 2 3 4 12 9 7 9 4 8 5 4 7 5 4 5 6 5 3 3 1 2 2 3 1 3 3 4 3 4 4 2 1 1 2 2 2 3 5 5 4 5 6 6
3 2 5 7 5 7 7 8 10 10 5 3 7 5 6 5 4 3 4 5 4 4 2 2 4 4 5 4 3 6 6 6 2 1 4 4 3 2 3 5 4 4 4 4 3
Wind_Direction
3 360 354 351 348 345 344 341 339 336 335 337 337 337 335 335 334 5 23 295 327 345 356 333 24 347 25 329 266 263 253 243 236 212 231 60 201 211 163 133 170 209 160 316 132
357 352 346 346 342 339 337 337 336 333 332 332 333 331 330 336 360 326 253 346 351 7 19 22 2 353 14 322 270 207 237 247 19 257 275 263 254 257 175 136 219 219 64 126 144
346 345 343 338 336 335 332 332 332 330 328 329 330 328 328 341 1 225 315 345 343 12 100 304 316 50 16 306 242 242 247 287 306 313 333 277 277 259 195 228 202 206 163 157 162
335 336 337 336 332 330 327 328 326 324 323 324 327 330 330 185 63 230 3 333 319 1 12 2 5 348 230 235 258 276 261 265 282 296 326 320 318 245 212 232 257 210 154 158 172
329 331 333 332 328 325 324 322 321 321 322 324 326 334 24 16 266 187 334 336 345 139 67 34 353 283 242 243 328 238 272 278 277 279 303 322 293 267 270 280 287 142 153 186 184
325 326 327 327 325 324 322 321 320 317 317 316 322 15 48 43 237 343 326 315 173 171 181 158 222 310 285 263 247 307 298 286 273 267 252 324 298 305 344 336 229 170 179 179 184
322 324 323 323 324 325 323 319 316 312 310 305 329 54 25 231 279 311 301 265 216 178 213 186 172 229 0 283 323 278 269 275 250 233 236 350 283 172 324 320 262 209 181 177 172
314 319 320 322 324 325 322 318 314 312 296 283 71 39 255 254 278 315 330 318 54 191 141 297 229 244 205 272 286 296 254 262 225 211 215 144 268 239 11 359 284 262 239 165 173
301 314 320 323 325 325 323 319 313 310 273 142 57 49 292 313 344 308 321 285 300 216 215 264 255 290 227 219 267 214 274 244 289 196 163 168 242 312 23 3 312 268 245 196 150
296 310 321 325 328 327 325 320 304 1 30 85 91 348 332 303 300 306 275 271 286 315 53 164 30 338 279 210 226 238 253 243 228 196 193 170 215 319 39 15 355 294 6 264 235
294 312 323 329 330 331 346 7 20 329 39 125 290 239 264 288 293 305 299 321 253 54 29 282 6 343 324 266 255 279 283 275 295 242 171 192 188 39 46 10 13 25 312 37 36
276 310 323 328 330 341 45 69 97 250 314 253 243 265 252 272 318 304 350 49 33 329 357 7 314 327 336 332 6 342 286 278 232 166 123 138 148 73 66 349 349 39 15 356 8
253 306 324 329 333 30 72 58 320 292 285 307 240 272 278 24 312 284 13 325 51 355 11 333 276 316 333 343 349 318 352 317 87 103 49 85 41 49 35 62 339 17 25 13 26
252 306 328 330 58 290 57 326 340 316 55 296 314 304 327 338 291 259 310 81 29 332 337 255 301 308 16 3 344 347 353 347 13 61 118 315 115 47 10 55 349 360 4 14 4
248 301 342 49 181 99 247 325 314 59 15 290 308 315 308 55 295 320 297 32 63 297 60 282 327 340 49 359 350 330 326 1 44 61 96 358 83 1 57 75 27 348 335 19 272
200 245 67 43 45 200 340 40 61 43 260 21 296 341 12 18 339 305 354 24 206 346 355 260 282 343 307 224 311 296 352 300 79 103 52 355 4 14 42 68 77 360 348 341 353
187 199 134 116 264 354 39 47 41 138 343 303 334 30 316 350 2 10 12 14 29 35 10 339 327 324 12 324 309 9 2 342 12 26 42 342 35 15 358 357 13 5 335 336 357
167 127 345 150 112 67 40 50 103 231 233 355 16 360 41 357 6 349 11 31 22 39 31 19 342 358 336 24 318 357 39 80 53 14 356 9 11 45 72 204 38 15 355 357 15
124 40 7 277 124 68 72 70 208 202 200 180 67 71 327 354 23 46 19 351 355 11 42 3 285 321 339 314 17 327 50 188 113 18 52 349 281 207 167 31 50 51 43 41 25
102 101 245 137 103 69 81 242 211 222 182 107 174 150 194 266 65 78 299 278 303 219 108 72 302 293 297 6 14 83 216 43 7 70 64 360 30 28 29 39 41 31 25 29 41
79 91 263 120 70 56 167 219 227 213 188 151 200 167 213 223 138 183 216 239 217 293 226 69 94 298 27 37 348 345 17 49 114 100 139 127 323 302 53 40 41 29 30 25 25
119 86 264 105 80 81 178 190 281 179 149 164 145 199 181 169 157 224 241 164 341 333 357 30 94 260 252 306 267 232 1 23 101 275 64 97 278 37 51 68 73 36 25 26 33
124 127 72 91 161 222 277 307 249 176 197 181 187 215 180 181 84 199 184 3 358 334 58 13 344 10 349 1 360 37 357 349 61 72 3 118 223 121 55 72 57 73 43 35 26
111 137 165 196 188 148 141 232 226 251 227 196 152 121 122 201 145 178 155 305 271 275 280 344 83 156 179 183 331 319 351 354 56 86 179 195 163 204 99 124 94 83 62 42 34
129 207 191 174 209 177 163 139 148 182 241 249 215 203 171 173 147 191 150 133 48 12 21 53 150 26 187 32 46 283 297 333 76 170 137 186 167 194 180 142 79 83 59 49 27
145 151 112 172 149 166 185 202 182 166 152 212 198 187 194 182 181 192 150 183 194 87 81 19 150 51 315 359 28 297 274 280 277 225 104 94 293 144 117 118 91 98 63 43 24
168 123 122 165 148 140 200 195 194 139 223 171 184 136 188 204 146 116 101 84 110 145 122 61 118 67 270 333 357 345 227 198 201 211 142 165 226 126 54 99 144 140 112 89 31